Location: Hermaringen
(48.5952°N, 10.2585°E)
Time: 09:15:08
(UTC+00:00)

Transit 4A - Visible Passes

Search period start: 19 February 2026 00:00
Search period end: 01 March 2026 00:00
Orbit: 865 x 976 km, 66.8° (Epoch: 18 February)

Date Brightness Start Highest point End Pass type
(mag) Time Alt. Az. Time Alt. Az. Time Alt. Az.
19 Feb 9.2 02:28:28 34° ENE 02:28:28 34° ENE 02:32:17 10° NE visible
19 Feb 8.2 04:11:57 40° WNW 04:12:59 44° NW 04:18:47 10° NNE visible
20 Feb 8.9 02:37:12 41° ENE 02:37:12 41° ENE 02:41:13 10° NE visible
20 Feb 8.6 04:20:41 31° WNW 04:21:58 34° NW 04:27:30 10° NNE visible
21 Feb 8.7 02:45:52 46° NE 02:45:52 46° NE 02:50:03 10° NE visible
21 Feb 8.9 04:29:22 24° WNW 04:31:01 28° NW 04:36:12 10° NNE visible
22 Feb 10.5 01:11:02 12° ENE 01:11:02 12° ENE 01:11:37 10° ENE visible
22 Feb 8.6 02:54:30 47° NNE 02:54:30 47° NNE 02:58:50 10° NNE visible
22 Feb 9.2 04:37:59 19° WNW 04:40:09 23° NNW 04:44:55 10° NNE visible
23 Feb 10.3 01:19:37 15° NE 01:19:37 15° NE 01:20:49 10° NE visible
23 Feb 8.6 03:03:06 43° N 03:03:06 43° N 03:07:34 10° NNE visible
23 Feb 9.5 04:46:34 15° NW 04:49:20 19° NNW 04:53:40 10° NNE visible
24 Feb 10.1 01:28:11 19° NE 01:28:11 19° NE 01:29:51 10° NE visible
24 Feb 8.7 03:11:39 38° NNW 03:11:39 38° NNW 03:16:17 10° NNE visible
24 Feb 9.7 04:55:07 11° NW 04:58:35 17° NNW 05:02:29 10° NNE visible
25 Feb 9.9 01:36:43 22° NE 01:36:43 22° NE 01:38:44 10° NE visible
25 Feb 8.9 03:20:11 32° NNW 03:20:11 32° NNW 03:25:00 10° NNE visible
25 Feb 9.8 05:04:25 10° NW 05:07:52 15° NNW 05:11:24 10° NNE visible
26 Feb 9.8 01:45:12 25° NE 01:45:12 25° NE 01:47:34 10° NE visible
26 Feb 9.1 03:28:40 26° NNW 03:28:40 26° NNW 03:33:42 10° NNE visible
26 Feb 9.9 05:14:01 10° NW 05:17:13 14° N 05:20:27 10° NNE visible
27 Feb 9.6 01:53:41 27° NNE 01:53:41 27° NNE 01:56:20 10° NNE visible
27 Feb 9.3 03:37:08 22° NW 03:37:44 22° NNW 03:42:25 10° NNE visible
27 Feb 9.9 05:23:26 10° NNW 05:26:32 14° N 05:29:42 10° NNE visible
28 Feb 9.5 02:02:07 28° NNE 02:02:07 28° NNE 02:05:04 10° NNE visible
28 Feb 9.5 03:45:35 18° NW 03:46:56 19° NNW 03:51:11 10° NNE visible
28 Feb 10.0 05:32:40 10° NNW 05:35:53 14° N 05:39:09 10° NE visible
